Skip Page Navigation
NASA JPL Caltech
NASA Logo - Jet Propulsion Laboratory + View the NASA Portal
+ Center for Near-Earth Object Studies
JPL Home Earth Solar System Stars & Galaxies Technology
JPL Solar System Dynamics
BODIES ORBITS EPHEMERIDES TOOLS PHYSICAL DATA DISCOVERY FAQ SITE MAP
JPL Small-Body Database Browser
Search: [ help ]  
102299 (1999 TV86)
Classification: Main-belt Asteroid          SPK-ID: 2102299
Ephemeris | Orbit Diagram | Orbital Elements | Mission Design | Physical Parameters | Discovery Circumstances | Close-Approach Data ]

[ show orbit diagram ]
Orbital Elements at Epoch 2459200.5 (2020-Dec-17.0) TDB
Reference: JPL 21 (heliocentric ecliptic J2000)
 Element Value Uncertainty (1-sigma)   Units 
e .1482173639374263 5.2744e-08  
a 2.286653040368608 7.1199e-09 au
q 1.947731354485672 1.1955e-07 au
i 3.366325951383456 5.3908e-06 deg
node 170.9912372327437 5.6945e-05 deg
peri 210.6865965057501 5.8189e-05 deg
M 14.87550791863798 1.06e-05 deg
tp 2459148.312302174394
(2020-Oct-25.81230217)
3.7204e-05 TDB
period 1262.986872110671
3.46
5.8988e-06
1.615e-08
d
yr
n .285038592205141 1.3313e-09 deg/d
Q 2.625574726251545 8.1752e-09 au
  Orbit Determination Parameters
   # obs. used (total)      710  
   data-arc span      7801 days (21.36 yr)  
   first obs. used      1999-09-04  
   last obs. used      2021-01-12  
   planetary ephem.      DE431  
   SB-pert. ephem.      SB431-N16  
   condition code      0  
   norm. resid. RMS      .50026  
   source      ORB  
   producer      Otto Matic  
   solution date      2021-Feb-24 08:31:03  

Additional Information
 Earth MOID = .949915 au 
 Jupiter MOID = 2.83015 au 
 T_jup = 3.584 
[ show covariance matrix ]

Ephemeris | Orbit Diagram | Orbital Elements | Mission Design | Physical Parameters | Discovery Circumstances | Close-Approach Data ]

Physical Parameter Table
Parameter Symbol Value Units Sigma Reference Notes
absolute magnitude H 16.61   n/a E2021B55  

102299 (1999 TV86)          Discovered 1999-Oct-15 by Spacewatch at Kitt Peak
Reference: 20051019/Numbers.arcLast Updated: 2005-10-26

[ show close-approach data ]
Ephemeris | Orbit Diagram | Orbital Elements | Mission Design | Physical Parameters | Discovery Circumstances | Close-Approach Data ]
ABOUT SSD CREDITS/AWARDS PRIVACY/COPYRIGHT GLOSSARY LINKS
FirstGov 2021-Mar-01 11:34 UT
(server date/time)  
NASA Home Page
Site Manager:   Ryan S. Park
Webmaster  Alan B. Chamberlin